| time (UTC) | temp F | wind direction | speed knots | gust knots | rain 1hr in | rain 24hr in | rain mn in | humidity % | barometer mb |
| 20260905173106 | 98 | 179 | 2.6 | 7.0 | 0.00 | 0.00 | 0.00 | 49 | 1012.1 |
| 20260905172606 | 98 | 154 | 3.5 | 7.0 | 0.00 | 0.00 | 0.00 | 51 | 1012.5 |
| 20260905171706 | 98 | 172 | 4.3 | 7.0 | 0.00 | 0.00 | 0.00 | 50 | 1012.6 |
| 20260905171603 | 97 | 159 | 4.3 | 7.0 | 0.00 | 0.00 | 0.00 | 53 | 1012.2 |
| 20260905170805 | 96 | 135 | 1.7 | 7.0 | 0.00 | 0.00 | 0.00 | 54 | 1012.7 |
| 20260905170004 | 95 | 170 | 1.7 | 5.2 | 0.00 | 0.00 | 0.00 | 55 | 1012.5 |
| 20260905165905 | 96 | 182 | 2.6 | 6.1 | 0.00 | 0.00 | 0.00 | 55 | 1012.9 |
| 20260905165006 | 97 | 199 | 1.7 | 6.1 | 0.00 | 0.00 | 0.00 | 54 | 1013.0 |
| 20260905164504 | 97 | 276 | 1.7 | 6.1 | 0.00 | 0.00 | 0.00 | 53 | 1012.6 |
| 20260905164105 | 98 | 172 | 3.5 | 7.0 | 0.00 | 0.00 | 0.00 | 53 | 1013.0 |
| 20260905163206 | 97 | 156 | 2.6 | 5.2 | 0.00 | 0.00 | 0.00 | 55 | 1013.1 |
| 20260905163006 | 96 | 126 | 2.6 | 5.2 | 0.00 | 0.00 | 0.00 | 56 | 1012.8 |
| 20260905162306 | 96 | 247 | 1.7 | 5.2 | 0.00 | 0.00 | 0.00 | 56 | 1013.1 |
| 20260905161503 | 95 | 211 | 1.7 | 6.1 | 0.00 | 0.00 | 0.00 | 57 | 1012.8 |
| 20260905161405 | 96 | 215 | 2.6 | 6.1 | 0.00 | 0.00 | 0.00 | 57 | 1013.1 |
| 20260905160505 | 96 | 232 | 1.7 | 5.2 | 0.00 | 0.00 | 0.00 | 59 | 1013.2 |
| 20260905160005 | 95 | 355 | 0.9 | 6.1 | 0.00 | 0.00 | 0.00 | 58 | 1012.8 |
| 20260905154613 | 94 | 88 | 0.9 | 4.3 | 0.00 | 0.00 | 0.00 | 60 | 1012.8 |
| 20260905153806 | 94 | 182 | 2.6 | 5.2 | 0.00 | 0.00 | 0.00 | 62 | 1013.2 |
| 20260905153003 | 92 | 244 | 1.7 | 5.2 | 0.00 | 0.00 | 0.00 | 63 | 1012.9 |
| 20260905152905 | 93 | 242 | 1.7 | 5.2 | 0.00 | 0.00 | 0.00 | 64 | 1013.2 |
| 20260905152006 | 92 | 169 | 0.9 | 3.5 | 0.00 | 0.00 | 0.00 | 64 | 1013.1 |
| 20260905151515 | 91 | 107 | 0.9 | 3.5 | 0.00 | 0.00 | 0.00 | 64 | 1012.8 |
| 20260905150205 | 91 | 167 | 1.7 | 4.3 | 0.00 | 0.00 | 0.00 | 65 | 1013.1 |
| 20260905150003 | 91 | 120 | 1.7 | 4.3 | 0.00 | 0.00 | 0.00 | 65 | 1012.7 |
| 20260905145307 | 91 | 158 | 2.6 | 5.2 | 0.00 | 0.00 | 0.00 | 66 | 1013.1 |
| 20260905144609 | 89 | 180 | 1.7 | 5.2 | 0.00 | 0.00 | 0.00 | 68 | 1012.7 |
| 20260905144405 | 90 | 153 | 1.7 | 5.2 | 0.00 | 0.00 | 0.00 | 69 | 1013.1 |
| 20260905143505 | 88 | 133 | 1.7 | 2.6 | 0.00 | 0.00 | 0.00 | 72 | 1013.0 |
| 20260905143006 | 87 | 120 | 0.9 | 2.6 | 0.00 | 0.00 | 0.00 | 72 | 1012.7 |
| 20260905141705 | 86 | 122 | 1.7 | 2.6 | 0.00 | 0.00 | 0.00 | 74 | 1013.1 |
| 20260905141522 | 85 | 136 | 1.7 | 3.5 | 0.00 | 0.00 | 0.00 | 75 | 1012.8 |
| 20260905140805 | 85 | 106 | 1.7 | 4.3 | 0.00 | 0.00 | 0.00 | 75 | 1013.2 |
| 20260905140106 | 84 | 111 | 0.0 | 2.6 | 0.00 | 0.00 | 0.00 | 77 | 1012.7 |
| 20260905135905 | 84 | 111 | 1.7 | 2.6 | 0.00 | 0.00 | 0.00 | 77 | 1013.1 |
| 20260905135006 | 83 | 109 | 1.7 | 4.3 | 0.00 | 0.00 | 0.00 | 80 | 1013.0 |
| 20260905134507 | 82 | 111 | 0.0 | 3.5 | 0.00 | 0.00 | 0.00 | 81 | 1012.7 |
| 20260905134105 | 82 | 88 | 0.9 | 3.5 | 0.00 | 0.00 | 0.00 | 82 | 1013.0 |
| 20260905133205 | 80 | 79 | 0.0 | 2.6 | 0.00 | 0.00 | 0.00 | 85 | 1013.0 |
| 20260905133104 | 80 | 61 | 0.0 | 2.6 | 0.00 | 0.00 | 0.00 | 85 | 1012.6 |
| 20260905132306 | 79 | 58 | 0.9 | 2.6 | 0.00 | 0.00 | 0.00 | 86 | 1012.8 |
| 20260905131608 | 78 | 54 | 0.9 | 2.6 | 0.00 | 0.00 | 0.00 | 87 | 1012.5 |
| 20260905131405 | 78 | 37 | 0.9 | 2.6 | 0.00 | 0.00 | 0.00 | 88 | 1012.8 |
| 20260905130505 | 77 | 50 | 0.9 | 2.6 | 0.00 | 0.00 | 0.00 | 90 | 1012.8 |
| 20260905130003 | 76 | 86 | 0.9 | 2.6 | 0.00 | 0.00 | 0.00 | 90 | 1012.4 |
| 20260905125605 | 76 | 51 | 0.9 | 2.6 | 0.00 | 0.00 | 0.00 | 91 | 1012.9 |
| 20260905124507 | 75 | 5 | 0.0 | 0.9 | 0.00 | 0.00 | 0.00 | 92 | 1012.5 |
| 20260905123805 | 76 | 10 | 0.9 | 2.6 | 0.00 | 0.00 | 0.00 | 92 | 1013.0 |
| 20260905123006 | 75 | 5 | 0.9 | 2.6 | 0.00 | 0.00 | 0.00 | 92 | 1012.7 |
| 20260905122905 | 75 | 23 | 0.0 | 2.6 | 0.00 | 0.00 | 0.00 | 92 | 1013.1 |
| 20260905122005 | 75 | 357 | 0.0 | 1.7 | 0.00 | 0.00 | 0.00 | 92 | 1013.1 |
| 20260905121505 | 75 | 344 | 0.0 | 0.9 | 0.00 | 0.00 | 0.00 | 92 | 1012.7 |
| 20260905121105 | 75 | 343 | 0.0 | 1.7 | 0.00 | 0.00 | 0.00 | 91 | 1012.9 |
| 20260905120205 | 75 | 342 | 0.9 | 1.7 | 0.00 | 0.00 | 0.00 | 91 | 1012.9 |
| 20260905120004 | 75 | 344 | 0.0 | 1.7 | 0.00 | 0.00 | 0.00 | 91 | 1012.6 |
| 20260905115306 | 75 | 187 | 0.0 | 1.7 | 0.00 | 0.00 | 0.00 | 91 | 1012.9 |
| 20260905114504 | 75 | 180 | 0.0 | 0.9 | 0.00 | 0.00 | 0.00 | 91 | 1012.6 |
| 20260905114405 | 75 | 181 | 0.0 | 0.9 | 0.00 | 0.00 | 0.00 | 91 | 1012.9 |
| 20260905113505 | 75 | 0 | 0.0 | 0.0 | 0.00 | 0.00 | 0.00 | 90 | 1012.8 |
| 20260905113103 | 75 | 152 | 0.0 | 0.0 | 0.00 | 0.00 | 0.00 | 90 | 1012.5 |
| 20260905112605 | 75 | 0 | 0.0 | 0.0 | 0.00 | 0.00 | 0.00 | 90 | 1012.8 |
| 20260905111705 | 75 | 0 | 0.0 | 0.0 | 0.00 | 0.00 | 0.00 | 90 | 1012.8 |
| 20260905111607 | 75 | 152 | 0.0 | 0.0 | 0.00 | 0.00 | 0.00 | 90 | 1012.5 |
| 20260905110805 | 75 | 0 | 0.0 | 0.0 | 0.00 | 0.00 | 0.00 | 90 | 1012.8 |
| 20260905110003 | 75 | 152 | 0.0 | 1.7 | 0.00 | 0.00 | 0.00 | 89 | 1012.5 |
| 20260905105905 | 75 | 152 | 0.0 | 0.9 | 0.00 | 0.00 | 0.00 | 89 | 1012.8 |
| 20260905105005 | 76 | 152 | 0.0 | 0.9 | 0.00 | 0.00 | 0.00 | 89 | 1012.7 |
| 20260905104602 | 75 | 152 | 0.0 | 1.7 | 0.00 | 0.00 | 0.00 | 89 | 1012.4 |
| 20260905104105 | 76 | 152 | 0.0 | 0.9 | 0.00 | 0.00 | 0.00 | 89 | 1012.7 |
| 20260905103205 | 76 | 152 | 0.0 | 0.9 | 0.00 | 0.00 | 0.00 | 88 | 1012.5 |
| 20260905103003 | 75 | 152 | 0.0 | 0.9 | 0.00 | 0.00 | 0.00 | 88 | 1012.2 |
| 20260905102306 | 76 | 152 | 0.0 | 0.9 | 0.00 | 0.00 | 0.00 | 88 | 1012.5 |
| 20260905101611 | 75 | 152 | 0.0 | 0.9 | 0.00 | 0.00 | 0.00 | 88 | 1012.3 |
| 20260905101405 | 76 | 152 | 0.0 | 0.9 | 0.00 | 0.00 | 0.00 | 88 | 1012.6 |
| 20260905100505 | 76 | 152 | 0.0 | 0.9 | 0.00 | 0.00 | 0.00 | 88 | 1012.6 |
| 20260905100004 | 76 | 152 | 0.0 | 0.9 | 0.00 | 0.00 | 0.00 | 88 | 1012.1 |
| 20260905095605 | 76 | 152 | 0.0 | 0.9 | 0.00 | 0.00 | 0.00 | 87 | 1012.4 |
| 20260905094705 | 76 | 0 | 0.0 | 0.0 | 0.00 | 0.00 | 0.00 | 87 | 1012.3 |
| 20260905094508 | 76 | 152 | 0.0 | 0.0 | 0.00 | 0.00 | 0.00 | 87 | 1012.1 |
| 20260905093805 | 76 | 152 | 0.9 | 1.7 | 0.00 | 0.00 | 0.00 | 87 | 1012.3 |
| 20260905093002 | 76 | 152 | 0.9 | 1.7 | 0.00 | 0.00 | 0.00 | 87 | 1012.0 |
| 20260905092905 | 77 | 152 | 0.9 | 1.7 | 0.00 | 0.00 | 0.00 | 87 | 1012.2 |
| 20260905092005 | 77 | 151 | 0.0 | 0.9 | 0.00 | 0.00 | 0.00 | 86 | 1012.3 |
| 20260905091504 | 77 | 152 | 0.0 | 0.9 | 0.00 | 0.00 | 0.00 | 86 | 1011.9 |
| 20260905091105 | 77 | 151 | 0.0 | 0.9 | 0.00 | 0.00 | 0.00 | 85 | 1012.2 |
| 20260905090205 | 77 | 152 | 0.0 | 0.9 | 0.00 | 0.00 | 0.00 | 85 | 1012.3 |
| 20260905090003 | 77 | 152 | 0.0 | 0.9 | 0.00 | 0.00 | 0.00 | 85 | 1011.9 |
| 20260905085306 | 78 | 152 | 0.9 | 1.7 | 0.00 | 0.00 | 0.00 | 85 | 1012.2 |
| 20260905084602 | 77 | 152 | 0.9 | 1.7 | 0.00 | 0.00 | 0.00 | 85 | 1011.8 |
| 20260905084405 | 78 | 152 | 0.9 | 1.7 | 0.00 | 0.00 | 0.00 | 84 | 1012.1 |
| 20260905083505 | 78 | 152 | 0.9 | 1.7 | 0.00 | 0.00 | 0.00 | 84 | 1012.0 |
| 20260905083005 | 78 | 152 | 0.9 | 1.7 | 0.00 | 0.00 | 0.00 | 84 | 1011.7 |
| 20260905082605 | 78 | 152 | 0.9 | 1.7 | 0.00 | 0.00 | 0.00 | 84 | 1011.9 |
| 20260905081705 | 79 | 152 | 0.0 | 0.9 | 0.00 | 0.00 | 0.00 | 83 | 1012.0 |
| 20260905081505 | 78 | 152 | 0.0 | 0.0 | 0.00 | 0.00 | 0.00 | 83 | 1011.7 |
| 20260905080805 | 79 | 151 | 0.0 | 0.9 | 0.00 | 0.00 | 0.00 | 82 | 1012.0 |
| 20260905080011 | 79 | 152 | 0.0 | 0.9 | 0.00 | 0.00 | 0.00 | 82 | 1011.7 |
| 20260905074508 | 79 | 152 | 0.0 | 0.9 | 0.00 | 0.00 | 0.00 | 80 | 1011.8 |
| 20260905073205 | 80 | 152 | 0.0 | 0.9 | 0.00 | 0.00 | 0.00 | 80 | 1012.2 |
| 20260905073102 | 80 | 152 | 0.0 | 0.9 | 0.00 | 0.00 | 0.00 | 79 | 1011.9 |
| 20260905072306 | 81 | 152 | 0.0 | 0.9 | 0.00 | 0.00 | 0.00 | 79 | 1012.2 |
| 20260905071605 | 80 | 152 | 0.0 | 1.7 | 0.00 | 0.00 | 0.00 | 78 | 1011.8 |
| 20260905071405 | 81 | 152 | 0.9 | 1.7 | 0.00 | 0.00 | 0.00 | 78 | 1012.2 |
| 20260905070505 | 81 | 0 | 0.0 | 0.0 | 0.00 | 0.00 | 0.00 | 78 | 1012.3 |
| 20260905070119 | 81 | 152 | 0.0 | 0.9 | 0.00 | 0.00 | 0.00 | 78 | 1011.9 |
| 20260905065605 | 81 | 152 | 0.0 | 0.9 | 0.00 | 0.00 | 0.00 | 77 | 1012.3 |
| 20260905064707 | 81 | 151 | 0.0 | 1.7 | 0.00 | 0.00 | 0.00 | 77 | 1012.2 |
| 20260905064603 | 81 | 152 | 0.0 | 1.7 | 0.00 | 0.00 | 0.00 | 77 | 1012.0 |
| 20260905063805 | 82 | 152 | 0.9 | 1.7 | 0.00 | 0.00 | 0.00 | 77 | 1012.2 |
| 20260905063111 | 81 | 152 | 0.0 | 1.7 | 0.00 | 0.00 | 0.00 | 76 | 1011.8 |
| 20260905062005 | 82 | 151 | 0.0 | 0.9 | 0.00 | 0.00 | 0.00 | 76 | 1012.2 |
| 20260905061506 | 82 | 152 | 0.0 | 0.9 | 0.00 | 0.00 | 0.00 | 76 | 1011.9 |
| 20260905061105 | 82 | 151 | 0.0 | 1.7 | 0.00 | 0.00 | 0.00 | 76 | 1012.2 |
| 20260905060006 | 82 | 152 | 0.0 | 1.7 | 0.00 | 0.00 | 0.00 | 76 | 1011.9 |
| 20260905054606 | 82 | 152 | 0.0 | 1.7 | 0.00 | 0.00 | 0.00 | 76 | 1012.0 |
| 20260905054405 | 82 | 151 | 0.0 | 1.7 | 0.00 | 0.00 | 0.00 | 76 | 1012.3 |
| 20260905053005 | 82 | 152 | 0.0 | 0.9 | 0.00 | 0.00 | 0.00 | 75 | 1011.9 |
| 20260905052605 | 83 | 152 | 0.0 | 0.9 | 0.00 | 0.00 | 0.00 | 75 | 1012.1 |
| 20260905051604 | 82 | 152 | 0.0 | 0.9 | 0.00 | 0.00 | 0.00 | 75 | 1011.7 |
| 20260905050805 | 83 | 151 | 0.0 | 0.9 | 0.00 | 0.00 | 0.00 | 75 | 1012.1 |
| 20260905050004 | 82 | 152 | 0.0 | 0.9 | 0.00 | 0.00 | 0.00 | 75 | 1011.9 |
| 20260905045905 | 83 | 152 | 0.0 | 1.7 | 0.00 | 0.00 | 0.00 | 75 | 1012.1 |
| 20260905045005 | 83 | 151 | 0.0 | 1.7 | 0.00 | 0.00 | 0.00 | 75 | 1012.2 |
| 20260905044622 | 82 | 152 | 0.0 | 2.6 | 0.00 | 0.00 | 0.00 | 75 | 1011.9 |
| 20260905044105 | 83 | 151 | 0.9 | 1.7 | 0.00 | 0.00 | 0.00 | 75 | 1012.2 |
| 20260905043205 | 83 | 0 | 0.0 | 0.0 | 0.00 | 0.00 | 0.00 | 76 | 1012.1 |
| 20260905043002 | 82 | 152 | 0.0 | 0.0 | 0.00 | 0.00 | 0.00 | 76 | 1011.9 |
| 20260905042307 | 83 | 0 | 0.0 | 0.0 | 0.00 | 0.00 | 0.00 | 76 | 1012.2 |
| 20260905041507 | 82 | 152 | 0.0 | 0.0 | 0.00 | 0.00 | 0.00 | 76 | 1011.9 |
| 20260905041405 | 83 | 0 | 0.0 | 0.0 | 0.00 | 0.00 | 0.00 | 76 | 1012.2 |
| 20260905040505 | 83 | 0 | 0.0 | 0.0 | 0.00 | 0.00 | 0.00 | 75 | 1012.3 |
| 20260905040008 | 82 | 152 | 0.0 | 0.0 | 0.00 | 0.00 | 0.00 | 75 | 1012.0 |
| 20260905035605 | 83 | 0 | 0.0 | 0.0 | 0.00 | 0.00 | 0.00 | 75 | 1012.3 |
| 20260905034705 | 83 | 0 | 0.0 | 0.0 | 0.00 | 0.00 | 0.00 | 75 | 1012.2 |
| 20260905034505 | 83 | 152 | 0.0 | 0.0 | 0.00 | 0.00 | 0.00 | 75 | 1011.9 |
| 20260905033106 | 83 | 152 | 0.0 | 0.0 | 0.00 | 0.00 | 0.00 | 74 | 1011.8 |
| 20260905032905 | 84 | 0 | 0.0 | 0.0 | 0.00 | 0.00 | 0.00 | 74 | 1012.1 |
| 20260905032005 | 84 | 0 | 0.0 | 0.0 | 0.00 | 0.00 | 0.00 | 73 | 1012.1 |
| 20260905031608 | 84 | 152 | 0.0 | 0.0 | 0.00 | 0.00 | 0.00 | 73 | 1011.9 |
| 20260905031105 | 85 | 0 | 0.0 | 0.0 | 0.00 | 0.00 | 0.00 | 72 | 1012.1 |
| 20260905030205 | 85 | 0 | 0.0 | 0.0 | 0.00 | 0.00 | 0.00 | 71 | 1012.0 |
| 20260905030106 | 85 | 152 | 0.0 | 0.0 | 0.00 | 0.00 | 0.00 | 71 | 1011.7 |
| 20260905025306 | 86 | 0 | 0.0 | 0.0 | 0.00 | 0.00 | 0.00 | 71 | 1011.8 |
| 20260905024508 | 85 | 152 | 0.0 | 0.0 | 0.00 | 0.00 | 0.00 | 70 | 1011.5 |
| 20260905024405 | 86 | 0 | 0.0 | 0.0 | 0.00 | 0.00 | 0.00 | 70 | 1011.8 |
| 20260905023505 | 86 | 152 | 0.0 | 0.9 | 0.00 | 0.00 | 0.00 | 70 | 1011.8 |
| 20260905023010 | 86 | 152 | 0.0 | 0.9 | 0.00 | 0.00 | 0.00 | 69 | 1011.3 |
| 20260905022605 | 87 | 0 | 0.0 | 0.0 | 0.00 | 0.00 | 0.00 | 68 | 1011.6 |
| 20260905021705 | 87 | 152 | 0.0 | 0.9 | 0.00 | 0.00 | 0.00 | 68 | 1011.5 |
| 20260905021508 | 87 | 152 | 0.0 | 1.7 | 0.00 | 0.00 | 0.00 | 68 | 1011.2 |
| 20260905020805 | 87 | 152 | 0.9 | 1.7 | 0.00 | 0.00 | 0.00 | 68 | 1011.4 |
| 20260905020006 | 87 | 152 | 0.0 | 1.7 | 0.00 | 0.00 | 0.00 | 67 | 1011.0 |
| 20260905015905 | 88 | 152 | 0.0 | 1.7 | 0.00 | 0.00 | 0.00 | 67 | 1011.3 |
| 20260905015005 | 88 | 151 | 0.0 | 1.7 | 0.00 | 0.00 | 0.00 | 66 | 1011.3 |
| 20260905014509 | 88 | 152 | 0.0 | 1.7 | 0.00 | 0.00 | 0.00 | 66 | 1010.9 |
| 20260905014105 | 88 | 164 | 1.7 | 2.6 | 0.00 | 0.00 | 0.00 | 65 | 1011.2 |
| 20260905013205 | 89 | 167 | 2.6 | 6.1 | 0.00 | 0.00 | 0.00 | 65 | 1011.2 |
| 20260905013102 | 89 | 175 | 1.7 | 6.1 | 0.00 | 0.00 | 0.00 | 65 | 1010.9 |
| 20260905012306 | 90 | 156 | 1.7 | 6.1 | 0.00 | 0.00 | 0.00 | 63 | 1011.2 |
| 20260905011504 | 90 | 138 | 1.7 | 5.2 | 0.00 | 0.00 | 0.00 | 62 | 1010.7 |
| 20260905011405 | 90 | 155 | 2.6 | 5.2 | 0.00 | 0.00 | 0.00 | 62 | 1011.0 |
| 20260905010505 | 91 | 147 | 3.5 | 6.1 | 0.00 | 0.00 | 0.00 | 60 | 1011.0 |
| 20260905010003 | 91 | 161 | 3.5 | 6.1 | 0.00 | 0.00 | 0.00 | 57 | 1010.8 |
| 20260905005605 | 93 | 140 | 0.0 | 3.5 | 0.00 | 0.00 | 0.00 | 55 | 1010.9 |
| 20260905004637 | 93 | 141 | 0.0 | 0.0 | 0.00 | 0.00 | 0.00 | 54 | 1010.5 |
| 20260905003805 | 94 | 140 | 0.0 | 0.9 | 0.00 | 0.00 | 0.00 | 53 | 1010.8 |
| 20260905003005 | 94 | 141 | 0.0 | 1.7 | 0.00 | 0.00 | 0.00 | 53 | 1010.5 |
| 20260905002905 | 94 | 140 | 0.9 | 0.9 | 0.00 | 0.00 | 0.00 | 52 | 1010.8 |
| 20260905002005 | 95 | 126 | 0.0 | 1.7 | 0.00 | 0.00 | 0.00 | 51 | 1010.7 |
| 20260905001502 | 94 | 360 | 0.0 | 1.7 | 0.00 | 0.00 | 0.00 | 51 | 1010.4 |
| 20260905001105 | 95 | 123 | 0.9 | 1.7 | 0.00 | 0.00 | 0.00 | 50 | 1010.8 |
| 20260905000205 | 95 | 141 | 0.9 | 2.6 | 0.00 | 0.00 | 0.00 | 50 | 1010.7 |
| 20260905000003 | 95 | 68 | 0.0 | 2.6 | 0.00 | 0.00 | 0.00 | 50 | 1010.4 |
| 20260904235306 | 95 | 150 | 1.7 | 2.6 | 0.00 | 0.00 | 0.00 | 48 | 1010.5 |
| 20260904234602 | 95 | 150 | 1.7 | 3.5 | 0.00 | 0.00 | 0.00 | 49 | 1010.2 |
| 20260904233505 | 96 | 166 | 1.7 | 3.5 | 0.00 | 0.00 | 0.00 | 48 | 1010.6 |
| 20260904233103 | 96 | 186 | 0.9 | 3.5 | 0.00 | 0.00 | 0.00 | 47 | 1010.2 |
| 20260904232605 | 97 | 169 | 1.7 | 3.5 | 0.00 | 0.00 | 0.00 | 46 | 1010.6 |
| 20260904231705 | 98 | 170 | 1.7 | 4.3 | 0.00 | 0.00 | 0.00 | 46 | 1010.6 |
| 20260904231608 | 97 | 175 | 0.9 | 4.3 | 0.00 | 0.00 | 0.00 | 46 | 1010.2 |
| 20260904230805 | 99 | 177 | 1.7 | 3.5 | 0.00 | 0.00 | 0.00 | 46 | 1010.5 |
| 20260904230128 | 98 | 186 | 0.9 | 3.5 | 0.00 | 0.00 | 0.00 | 46 | 1010.1 |
| 20260904225905 | 99 | 165 | 1.7 | 3.5 | 0.00 | 0.00 | 0.00 | 45 | 1010.5 |
| 20260904225005 | 99 | 189 | 2.6 | 4.3 | 0.00 | 0.00 | 0.00 | 45 | 1010.5 |
| 20260904224503 | 98 | 182 | 1.7 | 5.2 | 0.00 | 0.00 | 0.00 | 45 | 1010.2 |
| 20260904224105 | 99 | 179 | 3.5 | 6.1 | 0.00 | 0.00 | 0.00 | 45 | 1010.7 |
| 20260904223003 | 99 | 138 | 1.7 | 6.1 | 0.00 | 0.00 | 0.00 | 45 | 1010.4 |
| 20260904222306 | 99 | 166 | 2.6 | 5.2 | 0.00 | 0.00 | 0.00 | 45 | 1010.7 |
| 20260904221504 | 99 | 214 | 2.6 | 7.0 | 0.00 | 0.00 | 0.00 | 45 | 1010.4 |
| 20260904220110 | 99 | 178 | 4.3 | 6.1 | 0.00 | 0.00 | 0.00 | 44 | 1010.4 |
| 20260904215605 | 99 | 146 | 2.6 | 4.3 | 0.00 | 0.00 | 0.00 | 44 | 1010.8 |
| 20260904214705 | 100 | 168 | 2.6 | 5.2 | 0.00 | 0.00 | 0.00 | 41 | 1010.8 |
| 20260904214512 | 100 | 126 | 1.7 | 5.2 | 0.00 | 0.00 | 0.00 | 42 | 1010.5 |
| 20260904213805 | 100 | 176 | 4.3 | 7.0 | 0.00 | 0.00 | 0.00 | 43 | 1010.9 |
| 20260904213107 | 100 | 193 | 5.2 | 7.8 | 0.00 | 0.00 | 0.00 | 42 | 1010.7 |
| 20260904212905 | 101 | 164 | 2.6 | 6.1 | 0.00 | 0.00 | 0.00 | 43 | 1011.0 |
| 20260904212005 | 101 | 149 | 1.7 | 4.3 | 0.00 | 0.00 | 0.00 | 41 | 1011.1 |
| 20260904211510 | 100 | 120 | 1.7 | 6.1 | 0.00 | 0.00 | 0.00 | 42 | 1010.8 |
| 20260904211105 | 100 | 167 | 3.5 | 7.8 | 0.00 | 0.00 | 0.00 | 40 | 1011.2 |
| 20260904210205 | 100 | 110 | 1.7 | 6.1 | 0.00 | 0.00 | 0.00 | 42 | 1011.3 |
| 20260904210011 | 100 | 169 | 0.0 | 7.8 | 0.00 | 0.00 | 0.00 | 42 | 1011.0 |
| 20260904205306 | 101 | 168 | 2.6 | 7.8 | 0.00 | 0.00 | 0.00 | 43 | 1011.4 |
| 20260904204512 | 99 | 157 | 0.9 | 6.1 | 0.00 | 0.00 | 0.00 | 43 | 1011.2 |
| 20260904204405 | 100 | 153 | 2.6 | 5.2 | 0.00 | 0.00 | 0.00 | 43 | 1011.5 |
| 20260904203505 | 100 | 148 | 2.6 | 5.2 | 0.00 | 0.00 | 0.00 | 43 | 1011.6 |
| 20260904203007 | 99 | 154 | 2.6 | 9.6 | 0.00 | 0.00 | 0.00 | 44 | 1011.4 |
| 20260904202605 | 99 | 181 | 3.5 | 9.6 | 0.00 | 0.00 | 0.00 | 43 | 1011.8 |
| 20260904201609 | 98 | 216 | 1.7 | 7.0 | 0.00 | 0.00 | 0.00 | 46 | 1011.6 |
| 20260904200009 | 98 | 227 | 3.5 | 8.7 | 0.00 | 0.00 | 0.00 | 44 | 1011.9 |
| 20260904195905 | 99 | 159 | 3.5 | 8.7 | 0.00 | 0.00 | 0.00 | 46 | 1012.2 |
| 20260904195005 | 99 | 162 | 2.6 | 7.0 | 0.00 | 0.00 | 0.00 | 46 | 1012.3 |
| 20260904194504 | 99 | 208 | 2.6 | 7.0 | 0.00 | 0.00 | 0.00 | 46 | 1012.1 |
| 20260904194105 | 99 | 164 | 2.6 | 8.7 | 0.00 | 0.00 | 0.00 | 47 | 1012.4 |
| 20260904193205 | 99 | 174 | 4.3 | 8.7 | 0.00 | 0.00 | 0.00 | 46 | 1012.4 |
| 20260904193004 | 99 | 193 | 2.6 | 8.7 | 0.00 | 0.00 | 0.00 | 47 | 1012.2 |
| 20260904192306 | 99 | 157 | 3.5 | 8.7 | 0.00 | 0.00 | 0.00 | 47 | 1012.6 |
| 20260904191509 | 98 | 148 | 3.5 | 7.8 | 0.00 | 0.00 | 0.00 | 47 | 1012.4 |
| 20260904191405 | 99 | 140 | 3.5 | 7.8 | 0.00 | 0.00 | 0.00 | 47 | 1012.7 |
| 20260904190505 | 98 | 150 | 4.3 | 9.6 | 0.00 | 0.00 | 0.00 | 47 | 1012.7 |
| 20260904190110 | 98 | 225 | 2.6 | 11.3 | 0.00 | 0.00 | 0.00 | 49 | 1012.5 |
| 20260904185605 | 98 | 164 | 6.1 | 11.3 | 0.00 | 0.00 | 0.00 | 48 | 1012.8 |
| 20260904184705 | 98 | 176 | 3.5 | 11.3 | 0.00 | 0.00 | 0.00 | 50 | 1012.8 |
| 20260904184606 | 98 | 173 | 5.2 | 9.6 | 0.00 | 0.00 | 0.00 | 49 | 1012.5 |
| 20260904183805 | 98 | 169 | 3.5 | 8.7 | 0.00 | 0.00 | 0.00 | 48 | 1013.0 |
| 20260904183116 | 97 | 136 | 0.9 | 7.8 | 0.00 | 0.00 | 0.00 | 49 | 1012.8 |
| 20260904182005 | 97 | 151 | 4.3 | 8.7 | 0.00 | 0.00 | 0.00 | 50 | 1013.3 |
| 20260904181604 | 97 | 132 | 5.2 | 8.7 | 0.00 | 0.00 | 0.00 | 51 | 1013.1 |
| 20260904181105 | 97 | 142 | 3.5 | 7.8 | 0.00 | 0.00 | 0.00 | 50 | 1013.5 |
| 20260904180005 | 97 | 184 | 4.3 | 7.8 | 0.00 | 0.00 | 0.00 | 49 | 1013.3 |
| 20260904174511 | 96 | 144 | 1.7 | 10.4 | 0.00 | 0.00 | 0.00 | 52 | 1013.4 |
| 20260904173505 | 95 | 140 | 3.5 | 7.0 | 0.00 | 0.00 | 0.00 | 54 | 1013.9 |